When you browse on this site, cookies collect data to enhance your experience and personalize the content and advertising you see.
Visit our Privacy Policy to learn more. By continuing to use the site, you agree to this use of cookies and data.
  • In Deutschland
  • Länderverzeichnis
  • Für 7 Tage
  • Wassertemperatur
  • Wetterkarte
  • Widgets
  • user-avatar
    Anmelden

    Stündliche Wetter Leicester

    Heute, 19 September, Donnerstag

    Zeit Temperatur Niederschläge Wind Luftdruck Luftfeuchtigkeit
    00:00 +12°C° 0 mm 1 m/S 767 mmHg 84%
    01:00 +12°C° 0 mm 1 m/S 766 mmHg 84%
    02:00 +10°C° 0 mm 0 m/S 766 mmHg 85%
    03:00 +10°C° 0 mm 0 m/S 766 mmHg 86%
    04:00 +10°C° 0 mm 0 m/S 766 mmHg 86%
    05:00 +10°C° 0 mm 0 m/S 766 mmHg 86%
    06:00 +10°C° 0 mm 0 m/S 766 mmHg 86%
    07:00 +12°C° 0 mm 0 m/S 766 mmHg 80%
    08:00 +13°C° 0 mm 0 m/S 767 mmHg 74%
    09:00 +15°C° 0 mm 0 m/S 767 mmHg 68%
    10:00 +16°C° 0 mm 0 m/S 767 mmHg 64%
    11:00 +18°C° 0 mm 0 m/S 767 mmHg 60%
    12:00 +21°C° 0 mm 1 m/S 767 mmHg 55%
    13:00 +21°C° 0 mm 1 m/S 766 mmHg 54%
    14:00 +21°C° 0 mm 1 m/S 766 mmHg 53%
    15:00 +22°C° 0 mm 1 m/S 766 mmHg 52%
    16:00 +21°C° 0 mm 1 m/S 766 mmHg 57%
    17:00 +17°C° 0 mm 0 m/S 766 mmHg 62%
    18:00 +16°C° 0 mm 0 m/S 765 mmHg 67%
    19:00 +16°C° 0 mm 1 m/S 765 mmHg 69%
    20:00 +16°C° 0 mm 1 m/S 766 mmHg 72%
    21:00 +15°C° 0 mm 1 m/S 766 mmHg 74%
    22:00 +14°C° 0 mm 1 m/S 766 mmHg 76%
    23:00 +14°C° 0 mm 1 m/S 765 mmHg 79%

    Morgen, 20 September, Freitag

    Zeit Temperatur Niederschläge Wind Luftdruck Luftfeuchtigkeit
    00:00 +13°C° 0 mm 2 m/S 765 mmHg 81%
    01:00 +13°C° 0 mm 2 m/S 765 mmHg 82%
    02:00 +12°C° 0 mm 2 m/S 765 mmHg 84%
    03:00 +12°C° 0 mm 2 m/S 764 mmHg 85%
    04:00 +12°C° 0 mm 2 m/S 764 mmHg 87%
    05:00 +12°C° 0 mm 2 m/S 764 mmHg 88%
    06:00 +10°C° 0 mm 2 m/S 763 mmHg 90%
    07:00 +13°C° 0 mm 2 m/S 763 mmHg 84%
    08:00 +13°C° 0 mm 3 m/S 764 mmHg 79%
    09:00 +16°C° 0 mm 3 m/S 764 mmHg 74%
    10:00 +17°C° 0 mm 3 m/S 763 mmHg 69%
    11:00 +18°C° 0 mm 4 m/S 763 mmHg 65%
    12:00 +20°C° 0 mm 4 m/S 762 mmHg 60%
    13:00 +20°C° 0 mm 5 m/S 761 mmHg 58%
    14:00 +20°C° 0 mm 5 m/S 761 mmHg 56%
    15:00 +20°C° 0 mm 5 m/S 760 mmHg 54%
    16:00 +19°C° 0 mm 5 m/S 759 mmHg 59%
    17:00 +17°C° 0 mm 5 m/S 759 mmHg 63%
    18:00 +15°C° 0 mm 4 m/S 758 mmHg 68%
    19:00 +14°C° 0 mm 4 m/S 758 mmHg 71%
    20:00 +13°C° 0 mm 4 m/S 758 mmHg 75%
    21:00 +12°C° 0 mm 5 m/S 758 mmHg 78%
    22:00 +12°C° 0 mm 5 m/S 758 mmHg 80%
    23:00 +12°C° 0 mm 5 m/S 757 mmHg 82%

    übermorgen, 21 September, Samstag

    Zeit Temperatur Niederschläge Wind Luftdruck Luftfeuchtigkeit
    00:00 +12°C° 0 mm 5 m/S 756 mmHg 84%
    01:00 +12°C° 0 mm 5 m/S 756 mmHg 83%
    02:00 +12°C° 0 mm 4 m/S 756 mmHg 82%
    03:00 +12°C° 0 mm 4 m/S 755 mmHg 81%
    04:00 +12°C° 0 mm 5 m/S 755 mmHg 80%
    05:00 +10°C° 0 mm 5 m/S 754 mmHg 79%
    06:00 +10°C° 0 mm 5 m/S 754 mmHg 78%
    07:00 +13°C° 0 mm 5 m/S 753 mmHg 74%
    08:00 +14°C° 0 mm 5 m/S 753 mmHg 69%
    09:00 +15°C° 0 mm 6 m/S 753 mmHg 64%
    10:00 +17°C° 0 mm 6 m/S 752 mmHg 60%
    11:00 +19°C° 0 mm 6 m/S 752 mmHg 56%
    12:00 +21°C° 0 mm 6 m/S 751 mmHg 52%
    13:00 +21°C° 0 mm 6 m/S 751 mmHg 52%
    14:00 +22°C° 0 mm 5 m/S 750 mmHg 53%
    15:00 +22°C° 0 mm 5 m/S 749 mmHg 53%
    16:00 +21°C° 0 mm 5 m/S 749 mmHg 58%
    17:00 +19°C° 0 mm 5 m/S 749 mmHg 62%
    18:00 +18°C° 0 mm 4 m/S 748 mmHg 67%
    19:00 +18°C° 0 mm 4 m/S 748 mmHg 69%
    20:00 +17°C° 0 mm 4 m/S 748 mmHg 71%
    21:00 +17°C° 0 mm 4 m/S 748 mmHg 73%
    22:00 +17°C° 0.2 mm 4 m/S 747 mmHg 76%
    23:00 +17°C° 0.2 mm 4 m/S 747 mmHg 79%

    22 September, Sonntag

    Zeit Temperatur Niederschläge Wind Luftdruck Luftfeuchtigkeit
    00:00 +17°C° 0.2 mm 4 m/S 747 mmHg 82%
    01:00 +17°C° 0.2 mm 4 m/S 746 mmHg 84%
    02:00 +17°C° 0.2 mm 3 m/S 746 mmHg 85%
    03:00 +18°C° 0.2 mm 3 m/S 745 mmHg 86%
    04:00 +17°C° 0.1 mm 3 m/S 745 mmHg 87%
    05:00 +17°C° 0.1 mm 3 m/S 745 mmHg 89%
    06:00 +17°C° 0.1 mm 3 m/S 744 mmHg 90%
    07:00 +18°C° 0 mm 3 m/S 744 mmHg 87%
    08:00 +19°C° 0 mm 4 m/S 744 mmHg 84%
    09:00 +20°C° 0 mm 4 m/S 745 mmHg 80%
    10:00 +19°C° 0.8 mm 4 m/S 745 mmHg 83%
    11:00 +19°C° 0.8 mm 5 m/S 745 mmHg 85%
    12:00 +17°C° 0.8 mm 5 m/S 745 mmHg 88%
    13:00 +17°C° 0.3 mm 5 m/S 745 mmHg 83%
    14:00 +19°C° 0.3 mm 4 m/S 745 mmHg 78%
    15:00 +19°C° 0.3 mm 4 m/S 745 mmHg 73%
    16:00 +18°C° 0 mm 4 m/S 745 mmHg 75%
    17:00 +18°C° 0 mm 3 m/S 745 mmHg 77%
    18:00 +17°C° 0 mm 3 m/S 745 mmHg 79%
    19:00 +16°C° 0 mm 3 m/S 746 mmHg 82%
    20:00 +16°C° 0 mm 3 m/S 746 mmHg 84%
    21:00 +14°C° 0 mm 3 m/S 746 mmHg 86%
    22:00 +14°C° 0 mm 3 m/S 746 mmHg 88%
    23:00 +14°C° 0 mm 2 m/S 747 mmHg 91%

    23 September, Montag

    Zeit Temperatur Niederschläge Wind Luftdruck Luftfeuchtigkeit
    00:00 +14°C° 0 mm 2 m/S 747 mmHg 93%
    01:00 +13°C° 0 mm 3 m/S 747 mmHg 93%
    02:00 +12°C° 0 mm 3 m/S 747 mmHg 94%
    03:00 +12°C° 0 mm 3 m/S 747 mmHg 95%
    04:00 +12°C° 0 mm 3 m/S 748 mmHg 95%
    05:00 +11°C° 0 mm 3 m/S 748 mmHg 95%
    06:00 +11°C° 0 mm 3 m/S 748 mmHg 95%
    07:00 +12°C° 0 mm 3 m/S 749 mmHg 89%
    08:00 +13°C° 0 mm 4 m/S 749 mmHg 84%
    09:00 +14°C° 0 mm 4 m/S 749 mmHg 78%
    10:00 +15°C° 0 mm 4 m/S 749 mmHg 73%
    11:00 +17°C° 0 mm 4 m/S 750 mmHg 67%
    12:00 +17°C° 0 mm 5 m/S 750 mmHg 61%
    13:00 +19°C° 0 mm 4 m/S 749 mmHg 59%
    14:00 +19°C° 0 mm 4 m/S 749 mmHg 58%
    15:00 +20°C° 0 mm 4 m/S 749 mmHg 57%
    16:00 +19°C° 0 mm 4 m/S 749 mmHg 63%
    17:00 +17°C° 0 mm 4 m/S 749 mmHg 69%
    18:00 +15°C° 0 mm 4 m/S 748 mmHg 76%
    19:00 +15°C° 0.3 mm 4 m/S 749 mmHg 81%
    20:00 +15°C° 0.3 mm 4 m/S 749 mmHg 85%
    21:00 +14°C° 0.3 mm 4 m/S 749 mmHg 90%
    22:00 +14°C° 0 mm 4 m/S 749 mmHg 91%
    23:00 +15°C° 0 mm 4 m/S 749 mmHg 92%

    24 September, Dienstag

    Zeit Temperatur Niederschläge Wind Luftdruck Luftfeuchtigkeit
    00:00 +16°C° 0 mm 3 m/S 748 mmHg 93%
    01:00 +16°C° 0 mm 3 m/S 748 mmHg 94%
    02:00 +16°C° 0 mm 3 m/S 748 mmHg 95%
    03:00 +16°C° 0 mm 3 m/S 748 mmHg 95%
    04:00 +16°C° 0 mm 3 m/S 748 mmHg 95%
    05:00 +16°C° 0 mm 3 m/S 747 mmHg 95%
    06:00 +14°C° 0 mm 3 m/S 747 mmHg 95%
    07:00 +16°C° 0 mm 3 m/S 747 mmHg 92%
    08:00 +17°C° 0 mm 4 m/S 746 mmHg 88%
    09:00 +17°C° 0 mm 5 m/S 745 mmHg 84%
    10:00 +17°C° 1.2 mm 6 m/S 744 mmHg 86%
    11:00 +17°C° 1.2 mm 7 m/S 743 mmHg 88%
    12:00 +16°C° 1.2 mm 7 m/S 742 mmHg 90%
    13:00 +17°C° 1 mm 8 m/S 741 mmHg 88%
    14:00 +17°C° 1 mm 9 m/S 741 mmHg 86%
    15:00 +17°C° 1 mm 10 m/S 740 mmHg 84%
    16:00 +16°C° 0.6 mm 9 m/S 741 mmHg 84%
    17:00 +16°C° 0.6 mm 7 m/S 741 mmHg 84%
    18:00 +15°C° 0.6 mm 6 m/S 741 mmHg 83%
    19:00 +14°C° 0 mm 6 m/S 742 mmHg 85%
    20:00 +14°C° 0 mm 5 m/S 742 mmHg 86%
    21:00 +13°C° 0 mm 5 m/S 743 mmHg 88%
    22:00 +13°C° 0 mm 4 m/S 742 mmHg 90%
    23:00 +13°C° 0 mm 4 m/S 742 mmHg 92%
    Mehr zeigen